Location: Burera
(21.3780°N, 81.9534°E)
Time: 11:51:33
(UTC+00:00)

SL-08 R/B - Pass Details

Date: 13 August 2020
Orbit: 950 x 1018 km, 82.9° (Epoch: 21 September)

Event Time Altitude Azimuth Distance (km) Brightness Sun altitude
Rises 13:41:19 0° 178° (S) 3,687 7.3 -9.2°
Reaches altitude 10° 13:43:51 10° 175° (S) 2,730 6.6 -9.7°
Maximum altitude 13:50:04 71° 93° (E) 1,026 4.4 -11.1°
Drops below altitude 10° 13:56:12 10° 10° (N) 2,694 7.0 -12.4°
Sets 13:58:41 0° 8° (N) 3,635 7.7 -12.9°
